Hartford, CT

2:14 AM EDT on March 24, 2017 (GMT -0400)
Hartford-brainard

Weather History for KHFD - March, 2013

Change the Weather History Date:

Wednesday, March 27, 2013

  Actual Average Record
Temperature  
Mean Temperature 40 °F -  
Max Temperature 55 °F 51 °F 81 °F (1998)
Min Temperature 26 °F 29 °F 18 °F (1974)
Degree Days  
Heating Degree Days 25    
Moisture  
Dew Point 24 °F    
Average Humidity 55    
Maximum Humidity 92    
Minimum Humidity 27    
Precipitation  
Precipitation 0.00 in - - ()
Sea Level Pressure  
Sea Level Pressure 29.85 in    
Wind  
Wind Speed 4 mph (NW)    
Max Wind Speed 17 mph    
Max Gust Speed 25 mph    
Visibility 10 miles    
Events      
Averages and records for this station are not official NWS values.
T = Trace of Precipitation, MM = Missing Value Source: NWS Daily Summary

Daily Weather History Graph

Daily Weather History Graph

Search for Another Location

Airport or City:

Trip Planner

Search our weather history database for the weather conditions in past years. The results will help you decide how hot, cold, wet, or windy it might be!

Date:

Astronomy

Mar. 27, 2013 Rise Set
Actual Time 6:41 AM EDT 7:10 PM EDT
Civil Twilight 6:13 AM EDT 7:38 PM EDT
Nautical Twilight 5:40 AM EDT 8:11 PM EDT
Astronomical Twilight 5:07 AM EDT 8:45 PM EDT
Moon 7:52 PM EDT (3/27) 6:30 AM EDT (3/27)
Length of Visible Light 13h 24m
Length of Day
12h 29m
Full, 100% of the Moon is Illuminated
Mar 27
Full
Apr 3
Last Quarter
Apr 10
New
Apr 18
First Quarter
Apr 25
Full

Hourly Weather History & Observations

Time (EDT) Temp. Windchill Dew Point Humidity Pressure Visibility Wind Dir Wind Speed Gust Speed Precip Events Conditions
12:53 AM 30.9 °F - 24.1 °F 76% 29.83 in 10.0 mi Calm Calm - N/A   Clear
1:53 AM 28.9 °F - 24.1 °F 82% 29.83 in 10.0 mi Calm Calm - N/A   Clear
2:53 AM 28.0 °F - 23.0 °F 81% 29.83 in 10.0 mi Calm Calm - N/A   Clear
3:53 AM 28.9 °F - 24.1 °F 82% 29.83 in 10.0 mi Calm Calm - N/A   Clear
4:53 AM 27.0 °F - 24.1 °F 89% 29.83 in 10.0 mi Calm Calm - N/A   Clear
5:53 AM 27.0 °F - 25.0 °F 92% 29.83 in 10.0 mi Calm Calm - N/A   Clear
6:53 AM 26.1 °F - 24.1 °F 92% 29.86 in 10.0 mi Calm Calm - N/A   Clear
7:53 AM 30.9 °F - 26.1 °F 82% 29.87 in 10.0 mi Calm Calm - N/A   Clear
8:53 AM 37.0 °F - 26.1 °F 65% 29.87 in 10.0 mi Calm Calm - N/A   Clear
9:53 AM 43.0 °F - 27.0 °F 53% 29.86 in 10.0 mi Calm Calm - N/A   Clear
10:53 AM 48.0 °F - 25.0 °F 41% 29.86 in 10.0 mi WNW 9.2 mph - N/A   Clear
11:53 AM 51.1 °F - 24.1 °F 35% 29.83 in 10.0 mi WNW 11.5 mph 19.6 mph N/A   Clear
12:53 PM 52.0 °F - 19.9 °F 28% 29.82 in 10.0 mi NW 17.3 mph 24.2 mph N/A   Overcast
1:53 PM 54.0 °F - 21.9 °F 29% 29.81 in 10.0 mi NNW 13.8 mph 19.6 mph N/A   Mostly Cloudy
2:53 PM 54.0 °F - 21.9 °F 29% 29.80 in 10.0 mi NW 12.7 mph 25.3 mph N/A   Scattered Clouds
3:53 PM 54.0 °F - 21.0 °F 28% 29.80 in 10.0 mi WNW 11.5 mph 23.0 mph N/A   Mostly Cloudy
4:53 PM 53.1 °F - 19.9 °F 27% 29.81 in 10.0 mi NNW 17.3 mph 24.2 mph N/A   Mostly Cloudy
5:53 PM 52.0 °F - 19.0 °F 27% 29.83 in 10.0 mi NW 13.8 mph 24.2 mph N/A   Overcast
6:53 PM 48.9 °F - 25.0 °F 39% 29.86 in 10.0 mi NW 16.1 mph 24.2 mph N/A   Overcast
7:53 PM 46.9 °F - 25.0 °F 42% 29.88 in 10.0 mi NNW 10.4 mph 23.0 mph N/A   Mostly Cloudy
8:53 PM 46.9 °F - 25.0 °F 42% 29.90 in 10.0 mi NW 10.4 mph 19.6 mph N/A   Overcast
9:53 PM 46.0 °F 41.4 °F 25.0 °F 44% 29.91 in 10.0 mi NW 9.2 mph 19.6 mph N/A   Overcast
10:53 PM 45.0 °F 40.6 °F 27.0 °F 49% 29.91 in 10.0 mi NW 8.1 mph 18.4 mph N/A   Overcast
11:53 PM 43.0 °F 37.7 °F 28.0 °F 56% 29.91 in 10.0 mi NW 9.2 mph - N/A   Clear